Mojave, CA

11:21 AM PDT on June 25, 2017 (GMT -0700)
Mojave

Weather History for KMHV - October, 2013

Change the Weather History Date:

Sunday, October 13, 2013

  Actual Average Record
Temperature  
Mean Temperature 58 °F -  
Max Temperature 66 °F 78 °F 94 °F (1971)
Min Temperature 50 °F 51 °F 40 °F (1969)
Degree Days  
Heating Degree Days 7    
Growing Degree Days 8 (Base 50)    
Moisture  
Dew Point 34 °F    
Average Humidity 41    
Maximum Humidity 58    
Minimum Humidity 26    
Precipitation  
Precipitation 0.00 in - - ()
Sea Level Pressure  
Sea Level Pressure 29.95 in    
Wind  
Wind Speed 13 mph (West)    
Max Wind Speed 29 mph    
Max Gust Speed 34 mph    
Visibility 10 miles    
Events      
Averages and records for this station are not official NWS values.
T = Trace of Precipitation, MM = Missing Value Source: NWS Daily Summary

Daily Weather History Graph

Daily Weather History Graph

Search for Another Location

Airport or City:

Trip Planner

Search our weather history database for the weather conditions in past years. The results will help you decide how hot, cold, wet, or windy it might be!

Date:

Astronomy

Oct. 13, 2013 Rise Set
Actual Time 6:57 AM PDT 6:19 PM PDT
Civil Twilight 6:31 AM PDT 6:45 PM PDT
Nautical Twilight 6:02 AM PDT 7:14 PM PDT
Astronomical Twilight 5:32 AM PDT 7:43 PM PDT
Moon 3:03 PM PDT (10/13) 1:24 AM PDT (10/13)
Length of Visible Light 12h 13m
Length of Day
11h 22m
Waxing Gibbous, 70% of the Moon is Illuminated
Oct 13
Waxing Gibbous
Oct 18
Full
Oct 26
Last Quarter
Nov 3
New
Nov 9
First Quarter

Hourly Weather History & Observations

Time (PDT) Temp. Dew Point Humidity Pressure Visibility Wind Dir Wind Speed Gust Speed Precip Events Conditions
12:15 AM 57.2 °F 32.0 °F 38% 29.92 in 10.0 mi SSW 6.9 mph - N/A   Clear
12:35 AM 55.4 °F 32.0 °F 41% 29.92 in 10.0 mi SW 9.2 mph - N/A   Clear
12:55 AM 55.4 °F 32.0 °F 41% 29.92 in 10.0 mi SSW 9.2 mph - N/A   Clear
1:15 AM 57.2 °F 32.0 °F 38% 29.92 in 10.0 mi SW 9.2 mph - N/A   Clear
1:35 AM 59.0 °F 32.0 °F 36% 29.91 in 10.0 mi SW 17.3 mph 24.2 mph N/A   Clear
1:55 AM 57.2 °F 32.0 °F 38% 29.91 in 10.0 mi WSW 8.1 mph - N/A   Clear
2:15 AM 57.2 °F 32.0 °F 38% 29.91 in 10.0 mi WSW 12.7 mph 17.3 mph N/A   Clear
2:35 AM 57.2 °F 33.8 °F 41% 29.91 in 10.0 mi WSW 11.5 mph 17.3 mph N/A   Clear
2:55 AM 57.2 °F 33.8 °F 41% 29.91 in 10.0 mi SW 10.4 mph - N/A   Clear
3:15 AM 57.2 °F 35.6 °F 44% 29.90 in 10.0 mi SW 8.1 mph - N/A   Clear
3:35 AM 57.2 °F 35.6 °F 44% 29.90 in 10.0 mi SSW 4.6 mph - N/A   Clear
3:55 AM 55.4 °F 33.8 °F 44% 29.91 in 10.0 mi SSW 4.6 mph - N/A   Clear
4:15 AM 53.6 °F 33.8 °F 47% 29.91 in 10.0 mi SSW 9.2 mph - N/A   Clear
4:35 AM 51.8 °F 33.8 °F 50% 29.91 in 10.0 mi WSW 6.9 mph - N/A   Clear
4:55 AM 50.0 °F 33.8 °F 54% 29.91 in 10.0 mi West 5.8 mph - N/A   Clear
5:15 AM 50.0 °F 35.6 °F 58% 29.91 in 10.0 mi West 8.1 mph - N/A   Clear
5:35 AM 51.8 °F 35.6 °F 54% 29.91 in 10.0 mi SW 5.8 mph - N/A   Clear
5:55 AM 51.8 °F 35.6 °F 54% 29.91 in 10.0 mi SW 6.9 mph - N/A   Clear
6:15 AM 50.0 °F 35.6 °F 58% 29.92 in 10.0 mi WSW 3.5 mph - N/A   Clear
6:35 AM 50.0 °F 35.6 °F 58% 29.92 in 10.0 mi SSW 9.2 mph - N/A   Clear
6:55 AM 50.0 °F 35.6 °F 58% 29.93 in 10.0 mi WSW 6.9 mph - N/A   Clear
7:15 AM 50.0 °F 35.6 °F 58% 29.93 in 10.0 mi SW 6.9 mph - N/A   Clear
7:35 AM 53.6 °F 37.4 °F 54% 29.93 in 10.0 mi West 3.5 mph - N/A   Clear
7:55 AM 57.2 °F 37.4 °F 48% 29.95 in 4.0 mi Calm Calm - N/A   Clear
8:15 AM 57.2 °F 35.6 °F 44% 29.95 in 10.0 mi WNW 13.8 mph - N/A   Clear
8:35 AM 59.0 °F 35.6 °F 42% 29.96 in 10.0 mi West 16.1 mph 24.2 mph N/A   Clear
8:55 AM 57.2 °F 35.6 °F 44% 29.96 in 10.0 mi West 16.1 mph - N/A   Clear
9:15 AM 59.0 °F 35.6 °F 42% 29.96 in 10.0 mi West 20.7 mph 27.6 mph N/A   Clear
9:35 AM 60.8 °F 35.6 °F 39% 29.96 in 10.0 mi West 20.7 mph 31.1 mph N/A   Clear
9:55 AM 60.8 °F 35.6 °F 39% 29.95 in 10.0 mi West 21.9 mph 33.4 mph N/A   Clear
10:15 AM 60.8 °F 35.6 °F 39% 29.96 in 10.0 mi West 23.0 mph - N/A   Clear
10:35 AM 62.6 °F 35.6 °F 37% 29.96 in 10.0 mi West 17.3 mph 26.5 mph N/A   Clear
10:55 AM 62.6 °F 35.6 °F 37% 29.96 in 10.0 mi West 24.2 mph 27.6 mph N/A   Clear
11:15 AM 64.4 °F 35.6 °F 34% 29.96 in 10.0 mi West 24.2 mph 31.1 mph N/A   Clear
11:35 AM 64.4 °F 35.6 °F 34% 29.96 in 10.0 mi West 27.6 mph 33.4 mph N/A   Clear
11:55 AM 64.4 °F 33.8 °F 32% 29.96 in 10.0 mi West 28.8 mph 34.5 mph N/A   Clear
12:15 PM 64.4 °F 32.0 °F 30% 29.95 in 10.0 mi West 25.3 mph 31.1 mph N/A   Clear
12:35 PM 66.2 °F 32.0 °F 28% 29.95 in 10.0 mi West 25.3 mph 34.5 mph N/A   Clear
12:55 PM 66.2 °F 32.0 °F 28% 29.95 in 10.0 mi West 26.5 mph 32.2 mph N/A   Clear
1:15 PM 66.2 °F 32.0 °F 28% 29.95 in 10.0 mi West 23.0 mph 28.8 mph N/A   Clear
1:35 PM 66.2 °F 30.2 °F 26% 29.94 in 10.0 mi West 27.6 mph 33.4 mph N/A   Clear
1:55 PM 66.2 °F 32.0 °F 28% 29.94 in 10.0 mi West 27.6 mph 32.2 mph N/A   Clear
2:15 PM 66.2 °F 32.0 °F 28% 29.94 in 10.0 mi West 27.6 mph 33.4 mph N/A   Clear
2:35 PM 66.2 °F 32.0 °F 28% 29.94 in 10.0 mi West 24.2 mph 33.4 mph N/A   Clear
2:55 PM 66.2 °F 32.0 °F 28% 29.94 in 10.0 mi West 26.5 mph - N/A   Clear
3:15 PM 66.2 °F 30.2 °F 26% 29.93 in 10.0 mi West 27.6 mph 33.4 mph N/A   Clear
3:35 PM 66.2 °F 30.2 °F 26% 29.93 in 10.0 mi West 26.5 mph 32.2 mph N/A   Clear
3:55 PM 66.2 °F 32.0 °F 28% 29.93 in 10.0 mi West 28.8 mph 33.4 mph N/A   Clear
4:15 PM 66.2 °F 32.0 °F 28% 29.94 in 10.0 mi West 24.2 mph 32.2 mph N/A   Clear
4:35 PM 64.4 °F 32.0 °F 30% 29.94 in 10.0 mi West 23.0 mph 32.2 mph N/A   Clear
4:55 PM 64.4 °F 32.0 °F 30% 29.95 in 10.0 mi West 23.0 mph 29.9 mph N/A   Clear
5:15 PM 64.4 °F 32.0 °F 30% 29.94 in 10.0 mi West 21.9 mph 26.5 mph N/A   Clear
5:35 PM 62.6 °F 32.0 °F 32% 29.95 in 10.0 mi WNW 23.0 mph 27.6 mph N/A   Clear
5:55 PM 62.6 °F 33.8 °F 34% 29.95 in 10.0 mi West 23.0 mph 26.5 mph N/A   Clear
6:15 PM 60.8 °F 35.6 °F 39% 29.96 in 10.0 mi WNW 20.7 mph 27.6 mph N/A   Clear
6:35 PM 59.0 °F 35.6 °F 42% 29.97 in 10.0 mi West 20.7 mph 27.6 mph N/A   Clear
6:55 PM 59.0 °F 35.6 °F 42% 29.97 in 10.0 mi WNW 21.9 mph 26.5 mph N/A   Clear
7:15 PM 57.2 °F 35.6 °F 44% 29.98 in 10.0 mi WNW 20.7 mph - N/A   Clear
7:35 PM 57.2 °F 35.6 °F 44% 29.99 in 10.0 mi West 20.7 mph - N/A   Clear
7:55 PM 57.2 °F 35.6 °F 44% 30.00 in 10.0 mi WNW 19.6 mph - N/A   Clear
8:15 PM 57.2 °F 35.6 °F 44% 30.00 in 10.0 mi West 17.3 mph - N/A   Clear
8:35 PM 57.2 °F 35.6 °F 44% 30.01 in 10.0 mi WNW 18.4 mph - N/A   Clear
8:55 PM 57.2 °F 35.6 °F 44% 30.01 in 10.0 mi WNW 15.0 mph - N/A   Clear
9:15 PM 57.2 °F 35.6 °F 44% 30.01 in 10.0 mi WNW 13.8 mph - N/A   Clear
9:35 PM 57.2 °F 35.6 °F 44% 30.02 in 10.0 mi WNW 10.4 mph - N/A   Clear
9:55 PM 57.2 °F 35.6 °F 44% 30.03 in 10.0 mi NW 5.8 mph - N/A   Clear
10:15 PM 55.4 °F 35.6 °F 47% 30.04 in 10.0 mi SSW 6.9 mph - N/A   Clear
10:35 PM 53.6 °F 35.6 °F 51% 30.05 in 10.0 mi Calm Calm - N/A   Clear
10:55 PM 53.6 °F 35.6 °F 51% 30.05 in 10.0 mi Calm Calm - N/A   Clear
11:15 PM 50.0 °F 35.6 °F 58% 30.06 in 10.0 mi Calm Calm - N/A   Clear
11:35 PM 50.0 °F 35.6 °F 58% 30.07 in 10.0 mi Calm Calm - N/A   Clear
11:55 PM 50.0 °F 35.6 °F 58% 30.07 in 10.0 mi Calm Calm - N/A   Clear